Date String (YYYY-MM-DD hh:mm:ss) UTC,Instrument flags,Ambient pressure (hPa),Sample flow (lpm),Bypass flow (lpm),Sample temperature (°C),Ambient temperature (°C),ASC tube jacket temperature (°C),LED temperature (°C),Box temperature (°C),Sample RH (%),Span deviation,Mass concentration (μg/m³),Mass concentration (μg/m³),Mass concentration (μg/m³)
DateTimeUTC,F1_M11,P_M11,Q1_M11,Q2_M11,T1_M11,T2_M11,T3_M11,T4_M11,T5_M11,U1_M11,ZSPAN_M11,X0_M11,X2_M11,X1_M11
2023-05-28 15:00:00,,0829.4,5.00,0.00,29.6,28.2,00.0,37.9,31.3,23.9,0000.0,0012.43,0004.25,0003.30
2023-05-28 15:01:00,,0829.4,5.00,0.00,29.7,28.2,00.0,37.9,31.3,24.0,0000.0,0012.64,0004.31,0003.31
2023-05-28 15:02:00,,0829.4,5.01,0.00,29.7,28.2,00.0,37.9,31.3,23.6,0000.0,0012.46,0004.29,0003.31
2023-05-28 15:03:00,,0829.4,5.00,0.00,29.7,28.2,00.0,38.0,31.3,22.9,0000.0,0011.83,0004.28,0003.31
2023-05-28 15:04:00,,0829.3,4.99,0.00,29.7,28.3,00.0,38.0,31.3,23.3,0000.0,0010.46,0004.31,0003.30
2023-05-28 15:05:00,,0829.4,4.99,0.00,29.7,28.3,00.0,38.0,31.3,23.8,0000.0,0010.18,0004.32,0003.30
2023-05-28 15:06:00,,0829.3,5.01,0.00,29.7,28.3,00.0,38.0,31.4,23.8,0000.0,0010.21,0004.33,0003.29
2023-05-28 15:07:00,,0829.3,5.01,0.00,29.7,28.3,00.0,38.0,31.4,23.7,0000.0,0010.41,0004.37,0003.29
2023-05-28 15:08:00,,0829.3,5.01,0.00,29.7,28.3,00.0,38.0,31.4,24.1,0000.0,0010.50,0004.37,0003.29
2023-05-28 15:09:00,,0829.3,5.01,0.00,29.7,28.3,00.0,38.0,31.4,24.8,0000.0,0011.33,0004.37,0003.30
2023-05-28 15:10:00,,0829.4,5.00,0.00,29.8,28.3,00.0,38.0,31.4,22.5,0000.0,0011.36,0004.37,0003.29
2023-05-28 15:11:00,,0829.4,5.00,0.00,29.8,28.3,00.0,38.1,31.4,22.8,0000.0,0010.85,0004.38,0003.29
2023-05-28 15:12:00,,0829.4,5.00,0.00,29.8,28.4,00.0,38.1,31.4,22.5,0000.0,0010.69,0004.30,0003.29
2023-05-28 15:13:00,,0829.4,5.00,0.00,29.8,28.4,00.0,38.1,31.4,22.6,0000.0,0010.33,0004.27,0003.28
2023-05-28 15:14:00,,0829.4,5.00,0.00,29.8,28.4,00.0,38.1,31.4,22.5,0000.0,0009.98,0004.24,0003.27
2023-05-28 15:15:00,,0829.4,5.00,0.00,29.8,28.4,00.0,38.1,31.5,22.5,0000.0,0010.06,0004.23,0003.27
2023-05-28 15:16:00,,0829.4,4.99,0.00,29.8,28.4,00.0,38.1,31.5,22.6,0000.0,0010.50,0004.26,0003.26
2023-05-28 15:17:00,,0829.4,5.00,0.00,29.9,28.4,00.0,38.1,31.5,23.3,0000.0,0010.64,0004.31,0003.26
2023-05-28 15:18:00,,0829.4,5.00,0.00,29.9,28.4,00.0,38.1,31.5,23.6,0000.0,0010.42,0004.29,0003.25
2023-05-28 15:19:00,,0829.4,4.99,0.00,29.9,28.5,00.0,38.1,31.5,23.5,0000.0,0010.39,0004.29,0003.24
2023-05-28 15:20:00,,0829.4,5.00,0.00,29.9,28.5,00.0,38.2,31.5,23.6,0000.0,0009.72,0004.26,0003.23
2023-05-28 15:21:00,,0829.4,5.00,0.00,29.9,28.5,00.0,38.2,31.5,23.6,0000.0,0009.30,0004.23,0003.21
2023-05-28 15:22:00,,0829.4,5.00,0.00,29.9,28.5,00.0,38.2,31.5,23.4,0000.0,0009.36,0004.23,0003.21
2023-05-28 15:23:00,,0829.4,4.99,0.00,29.9,28.5,00.0,38.2,31.6,23.2,0000.0,0009.15,0004.26,0003.20
2023-05-28 15:24:00,,0829.4,5.00,0.00,29.9,28.5,00.0,38.2,31.6,22.9,0000.0,0009.07,0004.24,0003.20
2023-05-28 15:25:00,,0829.4,5.01,0.00,29.9,28.5,00.0,38.2,31.6,22.9,0000.0,0009.30,0004.28,0003.20
2023-05-28 15:26:00,,0829.4,5.01,0.00,30.0,28.5,00.0,38.2,31.6,23.4,0000.0,0009.31,0004.29,0003.20
2023-05-28 15:27:00,,0829.4,5.01,0.00,30.0,28.5,00.0,38.2,31.6,23.2,0000.0,0008.96,0004.27,0003.21
2023-05-28 15:28:00,,0829.4,5.00,0.00,30.0,28.6,00.0,38.3,31.6,23.3,0000.0,0008.80,0004.22,0003.21
2023-05-28 15:29:00,,0829.4,4.98,0.00,30.0,28.6,00.0,38.3,31.6,23.2,0000.0,0009.04,0004.23,0003.22
2023-05-28 15:30:00,,0829.3,5.01,0.00,30.0,28.6,00.0,38.3,31.6,23.0,0000.0,0009.04,0004.25,0003.23
2023-05-28 15:31:00,,0829.3,5.00,0.00,30.0,28.6,00.0,38.3,31.7,22.2,0000.0,0009.16,0004.28,0003.23
2023-05-28 15:32:00,,0829.3,5.01,0.00,30.0,28.6,00.0,38.3,31.7,22.7,0000.0,0009.17,0004.31,0003.24
2023-05-28 15:33:00,,0829.3,5.00,0.00,30.0,28.6,00.0,38.3,31.7,23.3,0000.0,0009.39,0004.34,0003.24
2023-05-28 15:34:00,,0829.3,5.01,0.00,30.1,28.6,00.0,38.3,31.7,23.9,0000.0,0009.45,0004.35,0003.25
2023-05-28 15:35:00,,0829.3,5.00,0.00,30.1,28.7,00.0,38.3,31.7,23.4,0000.0,0009.72,0004.40,0003.26
2023-05-28 15:36:00,,0829.3,5.00,0.00,30.1,28.7,00.0,38.3,31.7,23.5,0000.0,0009.97,0004.50,0003.27
2023-05-28 15:37:00,,0829.3,4.98,0.00,30.1,28.7,00.0,38.4,31.7,23.7,0000.0,0009.84,0004.54,0003.29
2023-05-28 15:38:00,,0829.3,5.00,0.00,30.1,28.7,00.0,38.4,31.7,23.5,0000.0,0009.73,0004.51,0003.29
2023-05-28 15:39:00,,0829.3,5.02,0.00,30.1,28.7,00.0,38.4,31.7,23.6,0000.0,0009.84,0004.50,0003.30
2023-05-28 15:40:00,,0829.3,4.99,0.00,30.1,28.7,00.0,38.4,31.8,23.5,0000.0,0015.31,0004.62,0003.31
2023-05-28 15:41:00,,0829.4,5.02,0.00,30.1,28.5,00.0,38.4,31.8,23.6,0000.0,0017.82,0004.63,0003.30
2023-05-28 15:42:00,,0829.3,5.00,0.00,30.1,27.0,00.0,38.3,31.5,23.7,0000.0,0018.64,0004.61,0003.31
2023-05-28 15:43:00,,0829.3,4.97,0.00,30.0,26.4,00.0,38.2,31.5,23.8,0000.0,0019.02,0004.61,0003.31
2023-05-28 15:44:00,,0829.3,5.01,0.00,30.0,26.6,00.0,38.2,31.3,23.1,0000.0,0018.94,0004.60,0003.32
2023-05-28 15:45:00,,0829.3,5.00,0.00,29.9,26.8,00.0,38.2,31.3,23.5,0000.0,0019.59,0004.61,0003.33
2023-05-28 15:46:00,,0829.3,4.99,0.00,29.9,27.0,00.0,38.2,31.3,23.4,0000.0,0019.57,0004.57,0003.32
2023-05-28 15:47:00,,0829.3,5.01,0.00,29.9,27.3,00.0,38.2,31.3,23.2,0000.0,0019.93,0004.46,0003.31
2023-05-28 15:48:00,,0829.3,4.99,0.00,29.8,27.5,00.0,38.2,31.3,23.8,0000.0,0019.78,0004.41,0003.31
2023-05-28 15:49:00,,0829.3,4.99,0.00,29.8,27.6,00.0,38.2,31.3,24.2,0000.0,0019.95,0004.46,0003.32
2023-05-28 15:50:00,,0829.3,5.00,0.00,29.8,27.8,00.0,38.2,31.4,23.9,0000.0,0020.09,0004.54,0003.33
2023-05-28 15:51:00,,0829.3,5.00,0.00,29.8,27.9,00.0,38.2,31.4,23.1,0000.0,0014.63,0004.42,0003.34
2023-05-28 15:52:00,,0829.3,5.00,0.00,29.8,28.0,00.0,38.2,31.4,23.6,0000.0,0012.19,0004.41,0003.35
2023-05-28 15:53:00,,0829.3,5.01,0.00,29.8,28.1,00.0,38.2,31.4,23.6,0000.0,0011.61,0004.39,0003.35
2023-05-28 15:54:00,,0829.2,5.00,0.00,29.9,28.2,00.0,38.2,31.4,23.3,0000.0,0011.19,0004.38,0003.36
2023-05-28 15:55:00,,0829.2,5.00,0.00,29.9,28.2,00.0,38.2,31.4,23.5,0000.0,0011.71,0004.40,0003.38
2023-05-28 15:56:00,,0829.1,5.00,0.00,29.9,28.3,00.0,38.2,31.5,23.0,0000.0,0011.31,0004.39,0003.38
2023-05-28 15:57:00,,0829.1,4.99,0.00,29.9,28.3,00.0,38.2,31.5,23.5,0000.0,0011.36,0004.40,0003.40
2023-05-28 15:58:00,,0829.1,5.00,0.00,29.9,28.4,00.0,38.2,31.5,23.1,0000.0,0011.07,0004.43,0003.41
2023-05-28 15:59:00,,0829.1,5.01,0.00,29.9,28.4,00.0,38.2,31.5,23.7,0000.0,0011.02,0004.45,0003.40
